Terug naar catalogus

CZ-2D DEB

ActiefSSO
NORAD 38176·DEBRIS·🇨🇳 China

Gelanceerd Nov 20, 2011 vanaf Jiuquan Satellite Launch Center

Loading…

Volgende Passages (komende 24 uur)

TLE

VersSource: Space-Track

Epoch: Sep 14, 2026, 11:09 UTC

1 38176U 11068D   26257.46505537  .00001139  00000-0  28624-3 0  9997
2 38176  98.2934 259.0966 0101672 245.8470 113.2068 14.50162878774670

Volg CZ-2D DEB in realtime met AllMySat

Download on the App Store